User: anonymous   Login
Location: Unspecified
(0.0000°N, 0.0000°E)
Time: 12:17:00
(UTC+00:00)
Language:

SNUSAT-1 - Orbit

View from above orbital plane
View from above orbital plane
View from above satellite
View from above satellite

Ground track
Ground track

The orbit data is extracted from the following two-line orbital elements,

1 42727U 98067MG  18347.99853388  .00063508  00000-0  30228-3 0  9998
2 42727  51.6307 153.8734 0005790 183.3137 270.2746 15.82242731 88812
Epoch (UTC): 13 December 2018 23:57:53
Eccentricity: 0.0005790
inclination: 51.6307°
perigee height: 320 km
apogee height: 328 km
right ascension of ascending node: 153.8734°
argument of perigee: 183.3137°
revolutions per day: 15.82242731
mean anomaly at epoch: 270.2746°
orbit number at epoch: 8881

The dashed part of the orbit path shows where the satellite is in the earth's shadow,  

DLR